Home   Weather   Gelsenkirchen   Past weeks

Flag for Germany Past Weather in Gelsenkirchen, North Rhine-Westphalia, Germany — Yesterday and Last 2 Weeks

Now
43 °F

Clear.


Feels Like: 36 °F
Forecast: 34 / 43 °F
Wind: 14 mph from South

Location: Duesseldorf

Current Time: Dec 7, 2016 at 7:26:49 pm

Latest Report: Dec 7, 2016 at 6:50 pm


Visibility: 10 mi

Pressure: 30.45 "Hg

Humidity: 76%

Dew Point: 36 °F

Location of GelsenkirchenLocation

Past Weather in Gelsenkirchen — Graph

°F

Gelsenkirchen Temperature Yesterday

Maximum temperature yesterday: 43 °F (at 1:50 pm)
Minimum temperature yesterday: 30 °F (at 1:20 am)
Average temperature yesterday: 35 °F

High & Low Weather Summary for the Past Weeks

 TemperatureHumidityPressure
High55 °F (Nov 23, 11:50 am)100% (Nov 23, 4:50 am)30.60 "Hg (Nov 23, 4:50 am)
Low18 °F (Dec 4, 7:50 am)45% (Nov 29, 2:50 pm)29.89 "Hg (Nov 22, 6:20 pm)
Average38 °F84%30.28 "Hg
* Reported Nov 22 6:20 pm — Dec 7 6:20 pm, Gelsenkirchen, Weather by CustomWeather, © 2016

Note: Actual official high and low records may vary slightly from our data, if they occured in-between our weather recording intervals... More about our weather records

Advertising

Gelsenkirchen Weather History for the Previous 24 Hours

Scroll right to see more
 ConditionsComfort  
Time TempWeatherWind HumidityBarometerVisibility
6:20 pm
Wed, Dec 7
43 °FClear.14 mph76%30.42 "Hg10 mi
5:50 pm43 °FClear.14 mph76%30.42 "Hg10 mi
5:20 pm43 °FClear.12 mph76%30.42 "Hg10 mi
4:50 pm43 °FClear.13 mph76%30.42 "Hg10 mi
4:20 pm43 °FSunny.13 mph76%30.42 "Hg10 mi
3:20 pm43 °FPassing clouds.10 mph71%30.42 "HgN/A
2:50 pm43 °FSunny.9 mph71%30.42 "Hg10 mi
2:20 pm43 °FPassing clouds.7 mph71%30.42 "HgN/A
1:50 pm43 °FPassing clouds.8 mph71%30.42 "HgN/A
1:20 pm41 °FSunny.14 mph76%30.42 "Hg10 mi
12:50 pm41 °FSunny.12 mph70%30.45 "Hg10 mi
12:20 pm41 °FSunny.14 mph76%30.45 "Hg10 mi
11:50 am39 °FPassing clouds.12 mph75%30.45 "HgN/A
11:20 am39 °FSunny.15 mph75%30.48 "Hg10 mi
10:50 am37 °FSunny.16 mph81%30.48 "Hg10 mi
10:20 am37 °FSunny.17 mph81%30.48 "Hg10 mi
9:50 am36 °FPassing clouds.13 mph81%30.48 "HgN/A
9:20 am36 °FSunny.15 mph81%30.48 "Hg10 mi
8:50 am36 °FSunny.14 mph81%30.45 "Hg10 mi
8:20 am36 °FClear.15 mph81%30.45 "Hg10 mi
7:50 am36 °FClear.15 mph81%30.45 "Hg10 mi
7:20 am36 °FClear.16 mph81%30.45 "Hg10 mi
6:50 am34 °FClear.18 mph87%30.45 "Hg10 mi
6:20 am36 °FClear.16 mph81%30.45 "Hg10 mi
5:50 am36 °FClear.13 mph81%30.45 "Hg10 mi
5:20 am36 °FClear.17 mph81%30.45 "Hg10 mi
4:50 am34 °FClear.13 mph87%30.48 "Hg10 mi
4:20 am34 °FClear.13 mph87%30.48 "Hg10 mi
3:50 am34 °FClear.13 mph87%30.48 "Hg10 mi
3:20 am36 °FClear.14 mph81%30.48 "Hg10 mi
2:50 am36 °FClear.15 mph81%30.48 "Hg10 mi
2:20 am36 °FClear.13 mph81%30.45 "Hg10 mi
1:50 am36 °FClear.14 mph81%30.45 "Hg10 mi
1:20 am36 °FClear.9 mph87%30.48 "Hg10 mi
12:50 am36 °FPassing clouds.8 mph87%30.48 "HgN/A
12:20 am36 °FClear.8 mph87%30.48 "Hg10 mi
11:50 pm
Tue, Dec 6
36 °FClear.9 mph87%30.48 "Hg10 mi
11:20 pm36 °FClear.13 mph87%30.45 "Hg10 mi
10:50 pm36 °FClear.9 mph87%30.48 "Hg10 mi
10:20 pm36 °FClear.8 mph87%30.48 "Hg10 mi
9:50 pm36 °FClear.10 mph87%30.48 "Hg10 mi
9:20 pm36 °FClear.8 mph87%30.48 "Hg10 mi
8:50 pm36 °FClear.8 mph81%30.48 "Hg10 mi
8:20 pm36 °FClear.10 mph81%30.48 "Hg10 mi
7:50 pm36 °FClear.12 mph81%30.45 "Hg10 mi
Weather by CustomWeather, © 2016

See weather overviewHow to use our weather pages